GW0175 Weather Reports


time (UTC)temp
C
wind
direction
speed
KPH
gust
KPH
rain 1hr
cm
rain 24hr
cm
rain mn
cm
humidity
%
barometer
mb
20260831230957 37 147 4.8 11.3 0.00 0.00 0.00 25 1009.7
20260831230453 37 190 8.0 20.9 0.00 0.00 0.00 25 1009.9
20260831225947 37 176 6.4 17.7 0.00 0.00 0.00 24 1009.9
20260831225443 37 169 4.8 12.9 0.00 0.00 0.00 24 1009.7
20260831224938 37 140 4.8 30.6 0.00 0.00 0.00 24 1009.6
20260831224437 37 133 4.8 19.3 0.00 0.00 0.00 24 1009.8
20260831223932 38 58 6.4 11.3 0.00 0.00 0.00 24 1009.8
20260831223428 38 204 4.8 12.9 0.00 0.00 0.00 25 1010.0
20260831222924 38 142 4.8 14.5 0.00 0.00 0.00 25 1009.8
20260831222420 38 190 0.0 11.3 0.00 0.00 0.00 24 1010.2
20260831221915 37 148 4.8 12.9 0.00 0.00 0.00 25 1010.0
20260831221411 37 188 9.7 14.5 0.00 0.00 0.00 25 1010.2
20260831220906 37 183 4.8 11.3 0.00 0.00 0.00 24 1010.2
20260831220401 37 174 4.8 11.3 0.00 0.00 0.00 23 1010.4
20260831215856 37 160 4.8 19.3 0.00 0.00 0.00 23 1010.4
20260831215352 37 154 4.8 11.3 0.00 0.00 0.00 21 1010.6
20260831214848 37 176 11.3 16.1 0.00 0.00 0.00 24 1010.8
20260831214345 37 180 6.4 20.9 0.00 0.00 0.00 25 1010.8
20260831213845 37 179 9.7 12.9 0.00 0.00 0.00 25 1011.0
20260831213342 37 126 0.0 14.5 0.00 0.00 0.00 25 1010.9
20260831212837 38 210 3.2 20.9 0.00 0.00 0.00 26 1011.3
20260831212334 38 108 14.5 14.5 0.00 0.00 0.00 26 1011.1
20260831211832 38 90 0.0 3.2 0.00 0.00 0.00 25 1010.9
20260831211328 36 186 6.4 17.7 0.00 0.00 0.00 27 1011.3
20260831210827 37 209 0.0 11.3 0.00 0.00 0.00 27 1011.3
20260831210323 38 65 3.2 6.4 0.00 0.00 0.00 24 1011.4
20260831205823 38 181 8.0 8.0 0.00 0.00 0.00 25 1011.6
20260831205319 37 168 8.0 14.5 0.00 0.00 0.00 26 1011.6
20260831204814 37 142 4.8 12.9 0.00 0.00 0.00 26 1011.9
20260831204313 37 96 4.8 11.3 0.00 0.00 0.00 27 1011.5
20260831203812 37 165 4.8 12.9 0.00 0.00 0.00 27 1011.6
20260831203307 37 154 4.8 6.4 0.00 0.00 0.00 28 1012.0
20260831202805 37 123 3.2 6.4 0.00 0.00 0.00 27 1012.2
20260831202300 36 220 4.8 16.1 0.00 0.00 0.00 29 1012.1
20260831201754 37 194 6.4 8.0 0.00 0.00 0.00 28 1012.1
20260831201253 37 180 3.2 8.0 0.00 0.00 0.00 29 1012.1
20260831200749 36 174 6.4 17.7 0.00 0.00 0.00 29 1012.2
20260831200244 36 162 9.7 11.3 0.00 0.00 0.00 29 1012.4
20260831195739 36 195 1.6 8.0 0.00 0.00 0.00 29 1012.4
20260831195235 36 173 8.0 11.3 0.00 0.00 0.00 29 1012.6
20260831194730 36 199 6.4 12.9 0.00 0.00 0.00 29 1012.7
20260831194226 37 129 3.2 8.0 0.00 0.00 0.00 28 1012.9
20260831193719 36 139 6.4 12.9 0.00 0.00 0.00 30 1012.9
20260831193215 36 185 4.8 14.5 0.00 0.00 0.00 29 1013.0
20260831192710 35 257 1.6 12.9 0.00 0.00 0.00 31 1012.6
20260831192205 36 183 8.0 12.9 0.00 0.00 0.00 30 1013.0
20260831191701 35 150 6.4 9.7 0.00 0.00 0.00 31 1013.0
20260831191157 35 175 14.5 20.9 0.00 0.00 0.00 32 1013.1
20260831190652 36 168 3.2 14.5 0.00 0.00 0.00 32 1012.9
20260831190151 35 182 4.8 14.5 0.00 0.00 0.00 32 1013.0
20260831185646 35 157 6.4 11.3 0.00 0.00 0.00 34 1013.1
20260831185142 35 165 8.0 16.1 0.00 0.00 0.00 34 1013.3
20260831184641 35 139 8.0 24.1 0.00 0.00 0.00 34 1013.2
20260831184138 35 195 6.4 20.9 0.00 0.00 0.00 35 1013.3
20260831183637 35 188 4.8 16.1 0.00 0.00 0.00 34 1013.3
20260831183136 34 169 9.7 11.3 0.00 0.00 0.00 35 1013.5
20260831182635 34 161 9.7 16.1 0.00 0.00 0.00 36 1013.8
20260831182132 34 174 4.8 17.7 0.00 0.00 0.00 34 1013.5
20260831181631 34 174 6.4 19.3 0.00 0.00 0.00 35 1013.7
20260831181131 35 160 14.5 17.7 0.00 0.00 0.00 35 1013.6
20260831180627 33 195 1.6 24.1 0.00 0.00 0.00 36 1013.8
20260831180122 33 192 6.4 22.5 0.00 0.00 0.00 37 1013.7
20260831175616 33 174 6.4 14.5 0.00 0.00 0.00 37 1013.9
20260831175113 33 177 11.3 19.3 0.00 0.00 0.00 39 1013.9
20260831174613 32 201 6.4 25.7 0.00 0.00 0.00 38 1014.2
20260831174108 32 169 12.9 20.9 0.00 0.00 0.00 39 1014.1
20260831173606 32 194 8.0 17.7 0.00 0.00 0.00 40 1014.1
20260831173103 32 167 8.0 17.7 0.00 0.00 0.00 40 1014.1
20260831172602 32 200 8.0 24.1 0.00 0.00 0.00 40 1013.9
20260831172057 32 179 8.0 20.9 0.00 0.00 0.00 42 1014.1
20260831171553 32 164 9.7 24.1 0.00 0.00 0.00 43 1014.4
20260831171050 31 150 6.4 17.7 0.00 0.00 0.00 43 1014.1
20260831170545 32 151 4.8 16.1 0.00 0.00 0.00 43 1014.2
20260831170043 32 162 9.7 17.7 0.00 0.00 0.00 42 1014.4
20260831165543 31 135 9.7 12.9 0.00 0.00 0.00 43 1014.4
20260831165040 31 191 8.0 20.9 0.00 0.00 0.00 45 1014.4
20260831164536 31 187 4.8 16.1 0.00 0.00 0.00 44 1014.5
20260831164031 30 169 4.8 14.5 0.00 0.00 0.00 46 1014.3
20260831163525 31 180 8.0 16.1 0.00 0.00 0.00 45 1014.5
20260831163021 30 168 8.0 17.7 0.00 0.00 0.00 46 1014.7
20260831162520 30 186 11.3 17.7 0.00 0.00 0.00 46 1014.6
20260831162018 30 176 6.4 17.7 0.00 0.00 0.00 47 1014.4
20260831161515 30 193 8.0 14.5 0.00 0.00 0.00 47 1014.5
20260831161010 29 150 8.0 19.3 0.00 0.00 0.00 48 1014.4
20260831160510 30 164 8.0 17.7 0.00 0.00 0.00 48 1014.5
20260831160005 29 174 9.7 17.7 0.00 0.00 0.00 49 1014.3
20260831155500 29 159 8.0 19.3 0.00 0.00 0.00 49 1014.2
20260831154955 28 162 3.2 20.9 0.00 0.00 0.00 49 1014.4
20260831154452 28 156 6.4 17.7 0.00 0.00 0.00 50 1014.2
20260831153950 28 189 6.4 20.9 0.00 0.00 0.00 50 1014.4
20260831153446 28 157 20.9 22.5 0.00 0.00 0.00 50 1014.3
20260831152942 28 175 8.0 17.7 0.00 0.00 0.00 50 1014.2
20260831152437 28 160 11.3 17.7 0.00 0.00 0.00 51 1014.5
20260831151933 28 175 8.0 17.7 0.00 0.00 0.00 52 1014.5
20260831151431 27 194 16.1 24.1 0.00 0.00 0.00 52 1014.3
20260831150927 27 198 8.0 25.7 0.00 0.00 0.00 52 1014.4
20260831150422 27 178 12.9 22.5 0.00 0.00 0.00 52 1014.4
20260831145922 27 160 1.6 20.9 0.00 0.00 0.00 53 1014.5
20260831145418 27 197 8.0 20.9 0.00 0.00 0.00 53 1014.4
20260831144914 27 198 8.0 14.5 0.00 0.00 0.00 53 1014.4
20260831144409 26 164 9.7 29.0 0.00 0.00 0.00 54 1014.2
20260831143904 26 182 11.3 24.1 0.00 0.00 0.00 54 1014.4
20260831143359 26 166 8.0 25.7 0.00 0.00 0.00 55 1014.4
20260831142855 26 186 6.4 22.5 0.00 0.00 0.00 55 1014.5
20260831142350 26 166 11.3 22.5 0.00 0.00 0.00 55 1014.4
20260831141849 26 180 14.5 24.1 0.00 0.00 0.00 55 1014.4
20260831141339 26 132 6.4 20.9 0.00 0.00 0.00 55 1014.5
20260831140834 26 174 19.3 22.5 0.00 0.00 0.00 55 1014.4
20260831140328 26 203 9.7 17.7 0.00 0.00 0.00 55 1014.4
20260831135826 26 190 8.0 17.7 0.00 0.00 0.00 55 1014.2
20260831135321 26 180 4.8 12.9 0.00 0.00 0.00 55 1014.3
20260831134816 25 186 6.4 14.5 0.00 0.00 0.00 56 1014.3
20260831134313 25 179 6.4 11.3 0.00 0.00 0.00 57 1014.2
20260831133812 25 155 12.9 12.9 0.00 0.00 0.00 57 1014.3
20260831133307 25 172 6.4 9.7 0.00 0.00 0.00 58 1014.2
20260831132802 25 184 6.4 11.3 0.00 0.00 0.00 58 1013.9
20260831132257 24 180 6.4 9.7 0.00 0.00 0.00 59 1014.2
20260831131756 24 172 4.8 12.9 0.00 0.00 0.00 59 1013.6
20260831131253 24 164 4.8 8.0 0.00 0.00 0.00 59 1013.8
20260831130748 23 209 0.0 9.7 0.00 0.00 0.00 59 1013.6
20260831130243 23 159 3.2 8.0 0.00 0.00 0.00 59 1013.4
20260831125742 23 175 4.8 8.0 0.00 0.00 0.00 60 1013.6
20260831125238 23 168 1.6 6.4 0.00 0.00 0.00 60 1013.7
20260831124732 23 162 0.0 6.4 0.00 0.00 0.00 60 1013.5
20260831124228 23 158 3.2 9.7 0.00 0.00 0.00 60 1013.4
20260831123723 23 180 8.0 12.9 0.00 0.00 0.00 60 1013.2
20260831123222 23 169 4.8 8.0 0.00 0.00 0.00 59 1013.1
20260831122721 23 169 11.3 11.3 0.00 0.00 0.00 59 1013.0
20260831122218 24 172 4.8 8.0 0.00 0.00 0.00 59 1013.1
20260831121716 24 178 4.8 11.3 0.00 0.00 0.00 58 1013.0
20260831121213 24 178 11.3 11.3 0.00 0.00 0.00 58 1013.1
20260831120708 24 180 8.0 11.3 0.00 0.00 0.00 58 1013.1
20260831120203 24 173 3.2 14.5 0.00 0.00 0.00 57 1013.0
20260831115659 25 206 4.8 12.9 0.00 0.00 0.00 57 1012.6
20260831115154 25 170 8.0 11.3 0.00 0.00 0.00 57 1012.9
20260831114654 24 205 6.4 14.5 0.00 0.00 0.00 57 1012.9
20260831114148 25 169 9.7 12.9 0.00 0.00 0.00 57 1012.9
20260831113648 24 172 4.8 12.9 0.00 0.00 0.00 57 1013.0
20260831113143 24 168 3.2 8.0 0.00 0.00 0.00 58 1012.7
20260831112642 24 180 0.0 9.7 0.00 0.00 0.00 58 1012.7
20260831112138 25 169 4.8 9.7 0.00 0.00 0.00 58 1013.0
20260831111633 25 166 8.0 9.7 0.00 0.00 0.00 58 1013.1
20260831111129 25 174 6.4 11.3 0.00 0.00 0.00 57 1013.0
20260831110625 25 175 8.0 12.9 0.00 0.00 0.00 57 1012.7
20260831110120 25 164 9.7 11.3 0.00 0.00 0.00 58 1012.9
20260831105619 24 170 6.4 9.7 0.00 0.00 0.00 58 1013.1
20260831105113 25 150 8.0 9.7 0.00 0.00 0.00 57 1012.7
20260831104604 25 146 4.8 9.7 0.00 0.00 0.00 57 1013.0
20260831104100 25 119 9.7 12.9 0.00 0.00 0.00 57 1013.0
20260831103555 24 178 6.4 9.7 0.00 0.00 0.00 58 1013.2
20260831103051 24 180 3.2 9.7 0.00 0.00 0.00 58 1013.0
20260831102550 25 163 4.8 8.0 0.00 0.00 0.00 57 1012.9
20260831102046 25 174 4.8 9.7 0.00 0.00 0.00 57 1013.0
20260831101540 25 160 6.4 8.0 0.00 0.00 0.00 57 1012.7
20260831101037 25 159 0.0 6.4 0.00 0.00 0.00 56 1013.1
20260831100532 25 178 4.8 9.7 0.00 0.00 0.00 55 1013.2
20260831100028 25 170 4.8 9.7 0.00 0.00 0.00 56 1013.1
20260831095526 25 198 4.8 9.7 0.00 0.00 0.00 56 1012.9
20260831095021 25 180 0.0 4.8 0.00 0.00 0.00 55 1013.0
20260831094518 25 175 3.2 9.7 0.00 0.00 0.00 55 1013.1
20260831094013 25 173 3.2 4.8 0.00 0.00 0.00 55 1013.0
20260831093513 26 173 4.8 8.0 0.00 0.00 0.00 54 1013.0
20260831093010 26 180 0.0 4.8 0.00 0.00 0.00 54 1013.2
20260831092505 26 200 1.6 6.4 0.00 0.00 0.00 54 1012.9
20260831092001 26 180 6.4 9.7 0.00 0.00 0.00 53 1012.5
20260831091455 26 200 4.8 9.7 0.00 0.00 0.00 53 1012.5
20260831090950 26 166 4.8 11.3 0.00 0.00 0.00 53 1012.6
20260831090446 26 180 8.0 12.9 0.00 0.00 0.00 52 1012.3
20260831085942 26 195 3.2 12.9 0.00 0.00 0.00 52 1012.4
20260831085437 26 161 8.0 12.9 0.00 0.00 0.00 52 1012.6
20260831084936 26 171 6.4 14.5 0.00 0.00 0.00 52 1012.3
20260831084433 26 160 4.8 14.5 0.00 0.00 0.00 51 1012.4
20260831083930 27 210 0.0 12.9 0.00 0.00 0.00 51 1012.5
20260831083425 27 209 4.8 12.9 0.00 0.00 0.00 51 1012.6
20260831082924 27 152 3.2 12.9 0.00 0.00 0.00 51 1012.4
20260831082423 27 180 3.2 12.9 0.00 0.00 0.00 50 1012.4
20260831081919 27 199 8.0 9.7 0.00 0.00 0.00 50 1012.6
20260831081415 27 187 8.0 14.5 0.00 0.00 0.00 50 1012.4
20260831080910 27 160 9.7 14.5 0.00 0.00 0.00 49 1012.4
20260831080405 27 152 8.0 12.9 0.00 0.00 0.00 49 1012.3
20260831075901 27 180 8.0 11.3 0.00 0.00 0.00 49 1012.5
20260831075356 27 181 8.0 14.5 0.00 0.00 0.00 49 1012.6
20260831074851 27 168 8.0 14.5 0.00 0.00 0.00 48 1012.5
20260831074350 28 181 8.0 17.7 0.00 0.00 0.00 48 1012.5
20260831073845 28 179 11.3 12.9 0.00 0.00 0.00 47 1012.6
20260831073344 28 166 6.4 16.1 0.00 0.00 0.00 47 1012.7
20260831072840 28 187 12.9 16.1 0.00 0.00 0.00 46 1012.9
20260831072335 28 155 6.4 14.5 0.00 0.00 0.00 46 1012.9
20260831071831 28 176 6.4 16.1 0.00 0.00 0.00 46 1012.9
20260831071330 28 186 9.7 19.3 0.00 0.00 0.00 45 1012.6
20260831070826 28 178 14.5 22.5 0.00 0.00 0.00 45 1012.6
20260831070324 28 176 6.4 14.5 0.00 0.00 0.00 45 1012.7
20260831065824 28 175 16.1 20.9 0.00 0.00 0.00 45 1012.4
20260831065322 28 173 9.7 19.3 0.00 0.00 0.00 44 1012.6
20260831064817 28 200 6.4 16.1 0.00 0.00 0.00 44 1012.7
20260831064307 28 181 9.7 17.7 0.00 0.00 0.00 43 1012.7
20260831063803 28 194 9.7 16.1 0.00 0.00 0.00 43 1012.9
20260831063257 28 194 9.7 9.7 0.00 0.00 0.00 43 1012.9
20260831062752 28 156 8.0 14.5 0.00 0.00 0.00 42 1012.9
20260831062247 29 177 11.3 17.7 0.00 0.00 0.00 42 1012.7
20260831061745 29 196 11.3 16.1 0.00 0.00 0.00 42 1012.9
20260831061240 29 180 8.0 14.5 0.00 0.00 0.00 41 1012.5
20260831060736 29 170 6.4 19.3 0.00 0.00 0.00 41 1012.9
20260831060236 29 177 11.3 14.5 0.00 0.00 0.00 40 1012.7
20260831055735 29 186 6.4 16.1 0.00 0.00 0.00 40 1012.9
20260831055230 29 197 6.4 16.1 0.00 0.00 0.00 40 1013.1
20260831054725 29 168 6.4 14.5 0.00 0.00 0.00 40 1012.9
20260831054220 29 168 6.4 9.7 0.00 0.00 0.00 40 1013.1
20260831053713 29 157 4.8 12.9 0.00 0.00 0.00 39 1012.9
20260831053212 29 176 9.7 14.5 0.00 0.00 0.00 39 1012.7
20260831052712 29 166 9.7 12.9 0.00 0.00 0.00 38 1012.7
20260831052212 29 192 6.4 14.5 0.00 0.00 0.00 38 1013.0
20260831051709 30 185 12.9 14.5 0.00 0.00 0.00 37 1012.7
20260831051208 29 188 8.0 16.1 0.00 0.00 0.00 37 1012.6
20260831050703 29 171 4.8 12.9 0.00 0.00 0.00 36 1012.7
20260831050202 28 160 4.8 11.3 0.00 0.00 0.00 36 1012.5
20260831045657 29 190 4.8 11.3 0.00 0.00 0.00 35 1012.5
20260831045151 29 190 4.8 9.7 0.00 0.00 0.00 35 1012.5
20260831044646 29 187 4.8 11.3 0.00 0.00 0.00 34 1012.5
20260831044141 30 149 4.8 9.7 0.00 0.00 0.00 34 1012.4
20260831043637 30 185 4.8 9.7 0.00 0.00 0.00 34 1012.4
20260831043132 30 164 6.4 9.7 0.00 0.00 0.00 33 1012.4
20260831042631 30 169 8.0 11.3 0.00 0.00 0.00 33 1012.1
20260831042126 30 170 4.8 8.0 0.00 0.00 0.00 33 1012.2
20260831041621 30 151 3.2 8.0 0.00 0.00 0.00 33 1012.1
20260831041121 30 166 4.8 9.7 0.00 0.00 0.00 33 1011.9
20260831040616 30 154 3.2 8.0 0.00 0.00 0.00 33 1012.1
20260831040115 30 154 3.2 6.4 0.00 0.00 0.00 32 1012.1
20260831035614 30 150 3.2 6.4 0.00 0.00 0.00 32 1012.0
20260831035109 30 158 3.2 6.4 0.00 0.00 0.00 32 1011.9
20260831034608 30 157 4.8 6.4 0.00 0.00 0.00 32 1011.5
20260831034103 30 155 4.8 8.0 0.00 0.00 0.00 32 1011.9
20260831033559 30 177 4.8 8.0 0.00 0.00 0.00 32 1011.8
20260831033054 30 166 3.2 6.4 0.00 0.00 0.00 31 1011.6
20260831032553 30 180 3.2 6.4 0.00 0.00 0.00 31 1011.6
20260831032049 30 157 1.6 4.8 0.00 0.00 0.00 30 1011.4
20260831031548 30 175 3.2 6.4 0.00 0.00 0.00 30 1011.3
20260831031048 31 192 0.0 6.4 0.00 0.00 0.00 30 1011.3
20260831030547 31 170 3.2 8.0 0.00 0.00 0.00 29 1011.3
20260831030046 31 159 3.2 8.0 0.00 0.00 0.00 28 1011.1
20260831025545 31 177 4.8 8.0 0.00 0.00 0.00 28 1011.1
20260831025040 31 139 3.2 8.0 0.00 0.00 0.00 29 1010.9
20260831024536 30 180 0.0 8.0 0.00 0.00 0.00 29 1010.8
20260831024035 31 169 3.2 6.4 0.00 0.00 0.00 30 1010.9
20260831023533 31 163 4.8 8.0 0.00 0.00 0.00 29 1010.8
20260831023027 31 152 4.8 8.0 0.00 0.00 0.00 28 1010.7
20260831022527 31 194 4.8 6.4 0.00 0.00 0.00 28 1010.6
20260831022022 31 157 3.2 3.2 0.00 0.00 0.00 28 1010.3
20260831021521 31 173 1.6 6.4 0.00 0.00 0.00 28 1010.3
20260831021017 32 180 0.0 6.4 0.00 0.00 0.00 28 1010.4
20260831020512 32 160 1.6 6.4 0.00 0.00 0.00 28 1010.3
20260831020007 32 162 3.2 4.8 0.00 0.00 0.00 27 1010.1
20260831015503 32 175 0.0 4.8 0.00 0.00 0.00 26 1010.1
20260831014958 33 172 4.8 4.8 0.00 0.00 0.00 26 1010.0
20260831014452 33 144 3.2 4.8 0.00 0.00 0.00 25 1010.2
20260831013948 33 120 1.6 8.0 0.00 0.00 0.00 25 1010.2
20260831013444 33 157 3.2 8.0 0.00 0.00 0.00 25 1010.1
20260831012937 33 177 3.2 6.4 0.00 0.00 0.00 25 1010.0
20260831012433 34 176 3.2 6.4 0.00 0.00 0.00 24 1010.0
20260831011933 34 146 3.2 6.4 0.00 0.00 0.00 24 1009.6
20260831011427 35 117 3.2 8.0 0.00 0.00 0.00 23 1009.9
20260831010923 35 90 0.0 3.2 0.00 0.00 0.00 23 1009.9
20260831010418 35 74 1.6 3.2 0.00 0.00 0.00 22 1009.9
20260831005913 36 131 0.0 8.0 0.00 0.00 0.00 22 1009.8
20260831005409 36 152 3.2 12.9 0.00 0.00 0.00 21 1009.8
20260831004903 36 173 14.5 14.5 0.00 0.00 0.00 21 1009.8
20260831004400 37 75 1.6 8.0 0.00 0.00 0.00 20 1009.7
20260831003855 37 96 0.0 8.0 0.00 0.00 0.00 20 1009.7
20260831003351 37 172 0.0 6.4 0.00 0.00 0.00 20 1010.0
20260831002850 37 135 8.0 16.1 0.00 0.00 0.00 19 1009.9
20260831002349 37 90 0.0 9.7 0.00 0.00 0.00 20 1009.5
20260831001845 37 69 0.0 17.7 0.00 0.00 0.00 20 1009.7
20260831001346 37 186 1.6 8.0 0.00 0.00 0.00 20 1009.6
20260831000843 38 120 0.0 6.4 0.00 0.00 0.00 20 1009.6
20260831000340 38 90 0.0 8.0 0.00 0.00 0.00 20 1009.8
20260830235836 38 95 3.2 9.7 0.00 0.00 0.00 19 1009.7
20260830235331 37 154 0.0 20.9 0.00 0.00 0.00 20 1009.7
20260830234827 37 155 4.8 12.9 0.00 0.00 0.00 20 1009.7
20260830234322 38 98 1.6 9.7 0.00 0.00 0.00 19 1009.7
20260830233818 38 140 0.0 4.8 0.00 0.00 0.00 20 1009.8
20260830233313 38 153 6.4 14.5 0.00 0.00 0.00 20 1010.0
20260830232809 38 134 8.0 14.5 0.00 0.00 0.00 20 1009.9
20260830232306 38 162 4.8 9.7 0.00 0.00 0.00 20 1009.9
20260830231800 38 184 6.4 6.4 0.00 0.00 0.00 20 1010.1
20260830231255 38 216 0.0 17.7 0.00 0.00 0.00 20 1010.0